Tracking 19164 objects as of 21-May-2018
HD Live streaming from Space Station
objects crossing your sky now

LEMUR 2 MCCULLAGH

Track LEMUR 2 MCCULLAGH now!
10-day predictions
LEMUR 2 MCCULLAGH is classified as:


NORAD ID: 43051
Int'l Code: 2017-071Q
Perigee: 453.7 km
Apogee: 455.5 km
Inclination: 51.6 °
Period: 93.5 minutes
Semi major axis: 6825 km
RCS: Unknown
Launch date: November 12, 2017
Source: United States (US)
Launch site: WALLOPS ISLAND (WLPIS)
aabbcc
Your satellite tracking list
Your tracking list is empty




NASA's NSSDC Master Catalog

Two Line Element Set (TLE):
1 43051U 17071Q   18141.12341987  .00002158  00000-0  64024-4 0  9995
2 43051  51.6381 172.8467 0001298 341.4227  18.6710 15.39543138 25403
Source of the keplerian elements: AFSPC